Regional Weather Roundup
Issued by NWS Little Rock, AR

Home | Current Version | Previous Version | Text Only | Print | Product List | Glossary On
Versions: 1 2 3 4 5 6 7 8 9 10 11 12 13 14 15 16 17 18 19 20 21 22 23 24 25 26 27 28 29 30 31 32 33 34 35 36 37 38 39 40 41 42 43 44 45 46 47 48 49 50
000
ASUS44 KLZK 271905
RWRLZK

WEATHER ROUNDUP FOR ARKANSAS
NATIONAL WEATHER SERVICE LITTLE ROCK AR
200 PM CDT THU AUG 27 2015

NOTE: "FAIR" INDICATES FEW OR NO CLOUDS BELOW 12,000 FEET WITH NO
SIGNIFICANT WEATHER AND/OR OBSTRUCTIONS TO VISIBILITY.

ARZ001-003-010-029-272000-
NORTHWEST ARKANSAS

CITY           SKY/WX    TMP DP  RH WIND       PRES   REMARKS
FAYETTEVILLE   CLOUDY    73  63  70 S7        30.13F
FORT SMITH     CLOUDY    75  62  64 E8        30.09F
BENTONVILLE    CLOUDY    73  61  64 S7        30.14F
ROGERS         CLOUDY    74  62  66 S7        30.14F
SILOAM SPGS    CLOUDY    72  61  68 SE6       30.11F
HIGHFILL       CLOUDY    73  63  70 S7        30.13F
SPRINGDALE     MOSUNNY   75  61  60 S7        30.16F
$$

ARZ004-005-016-272000-
NORTH CENTRAL ARKANSAS

CITY           SKY/WX    TMP DP  RH WIND       PRES   REMARKS
BATESVILLE     PTSUNNY   81  57  44 W3        30.13S
FLIPPIN        CLOUDY    79  57  47 CALM      30.13S
MTN HOME       CLOUDY    77  59  53 VRB5      30.14F
$$

ARZ040-041-272000-
WEST CENTRAL ARKANSAS

CITY           SKY/WX    TMP DP  RH WIND       PRES   REMARKS
MENA           CLOUDY    82  61  47 CALM      30.13F
MOUNT IDA      CLOUDY    82  61  48 VRB3      30.10F
$$

ARZ009-017-025-026-028-272000-
NORTHEAST ARKANSAS

CITY           SKY/WX    TMP DP  RH WIND       PRES   REMARKS
JONESBORO      SUNNY     79  59  50 E8        30.11F
NEWPORT        SUNNY     81  58  45 CALM      30.13F
WALNUT RIDGE   SUNNY     81  55  41 NE8       30.12F
BLYTHEVILLE    MOSUNNY   83  61  47 VRB6      30.11F
NW BLYTHEVILLE PTSUNNY   81  57  44 N5        30.11F
$$

ARZ022-023-033-042-044-272000-
CENTRAL ARKANSAS

CITY           SKY/WX    TMP DP  RH WIND       PRES   REMARKS
LITTLE ROCK    CLOUDY    84  57  39 CALM      30.11F
N LITTLE ROCK  CLOUDY    82  62  50 NE6       30.11F
JACKSONVILLE   PTSUNNY   82  58  44 VRB3      30.11F
SEARCY         MOSUNNY   82  59  45 NE6       30.12F
HOT SPRINGS    PTSUNNY   83  60  45 CALM      30.11F
RUSSELLVILLE   CLOUDY    80  61  52 CALM      30.11F
$$

ARZ036-272000-
EAST ARKANSAS

CITY           SKY/WX    TMP DP  RH WIND       PRES   REMARKS
WEST MEMPHIS   MOSUNNY   81  59  47 MISG      30.09F
$$

ARZ050-053-066-070-073-272000-
SOUTHWEST ARKANSAS

CITY           SKY/WX    TMP DP  RH WIND       PRES   REMARKS
ARKADELPHIA    FAIR      85  62  45 VRB6      30.11F HX  85
CAMDEN         MOSUNNY   86  59  39 NW7       30.09F HX  85
TEXARKANA      PTSUNNY   85  59  41 NE6       30.10F
EL DORADO      SUNNY     84  59  42 MISG      30.09F
DE QUEEN       CLOUDY    83  63  50 E7        30.09F
$$

ARZ056-057-069-272000-
SOUTHEAST ARKANSAS

CITY           SKY/WX    TMP DP  RH WIND       PRES   REMARKS
PINE BLUFF     MOSUNNY   81  58  45 N7        30.10F
STUTTGART      MOSUNNY   81  57  44 N9        30.10F
MONTICELLO     SUNNY     84  56  38 NE7       30.08F

$$




USA.gov is the U.S. government's official web portal to all federal, state and local government web resources and services.